Location: Unspecified
(0.0000°N, 0.0000°E)
Time: 00:21:51
(UTC+00:00)

NOSS 2-1 (E) - Visible Passes

Search period start: 21 July 2018 00:00
Search period end: 31 July 2018 00:00
Orbit: 487 x 1718 km, 63.3° (Epoch: 17 July)

Date Brightness Start Highest point End Pass type
(mag) Time Alt. Az. Time Alt. Az. Time Alt. Az.
21 Jul 4.9 19:25:20 10° S 19:27:44 24° SSE 19:27:44 24° SSE visible
22 Jul 5.1 18:41:04 10° SSE 18:43:45 15° ESE 18:46:08 10° E visible
22 Jul 6.1 20:31:21 10° WSW 20:34:05 16° WNW 20:34:50 16° WNW visible
23 Jul 4.4 19:44:14 10° SW 19:48:35 45° WNW 19:52:11 10° N visible
24 Jul 8.4 05:28:09 10° NE 05:32:08 14° ENE 05:36:23 10° E visible
24 Jul 3.4 18:58:18 10° SSW 19:02:57 61° ESE 19:06:42 10° NNE visible
26 Jul 5.7 19:17:55 10° SW 19:21:41 27° WNW 19:24:55 10° N visible
27 Jul 8.1 04:59:32 10° NNE 05:05:19 19° ENE 05:11:45 10° ESE visible
27 Jul 3.6 18:31:30 10° SSW 18:36:09 79° WNW 18:39:54 10° NNE visible
29 Jul 6.8 05:16:04 10° N 05:24:12 45° ENE 05:33:46 10° SE visible
29 Jul 6.6 18:52:01 10° WSW 18:54:46 17° WNW 18:57:15 10° NNW visible
30 Jul 7.6 04:31:37 10° NNE 04:38:30 26° ENE 04:46:20 10° ESE visible
